Regional Weather Roundup
Issued by NWS Charleston, WV

Home | Current Version | Previous Version | Graphics & Text | Print | Product List | Glossary On
Versions: 1 2 3 4 5 6 7 8 9 10 11 12 13 14 15 16 17 18 19 20 21 22 23 24 25 26 27 28 29 30 31 32 33 34 35 36 37 38 39 40 41 42 43 44 45 46 47 48 49
000
ASUS41 KRLX 062010
RWRRLX
West Virginia Regional Weather Roundup
National Weather Service Charleston WV
400 PM EDT MON JUL 06 2015

Note: "fair" indicates few or no clouds below 12,000 feet with no
significant weather and/or obstructions to visibility.

WVZ003-062100-
Northern Panhandle of West Virginia

CITY           SKY/WX    TMP DP  RH WIND       PRES   REMARKS
WHEELING       MOSUNNY   79  70  74 S5        30.04F
$$

WVZ009-062100-
Northwest West Virginia

CITY           SKY/WX    TMP DP  RH WIND       PRES   REMARKS
PARKERSBURG    PTSUNNY   79  68  69 SW8       30.06F
$$

WVZ006-062100-
Western West Virginia

CITY           SKY/WX    TMP DP  RH WIND       PRES   REMARKS
HUNTINGTON     MOSUNNY   82  67  60 W9        30.07S
$$

WVZ015-062100-
West Central West Virginia

CITY           SKY/WX    TMP DP  RH WIND       PRES   REMARKS
CHARLESTON     PTSUNNY   79  68  69 VRB7      30.08F
$$

WVZ022-031-062100-
North Central West Virginia

CITY           SKY/WX    TMP DP  RH WIND       PRES   REMARKS
CLARKSBURG     PTSUNNY   81  67  62 SW8       30.05F
MORGANTOWN     RAIN      74  68  81 VRB5      30.07R
$$

WVZ025-035-042-045-062100-
Southern West Virginia

CITY           SKY/WX    TMP DP  RH WIND       PRES   REMARKS
BECKLEY        CLOUDY    71  63  75 W8        30.17S
LOGAN          PTSUNNY   73  68  83 S6        30.10F HAZE
BLUEFIELD      LGT RAIN  70  63  78 W12       30.20S
LEWISBURG      PTSUNNY   78  63  60 W13       30.14S
$$

WVZ047-062100-
Northern Mountains of West Virginia

CITY           SKY/WX    TMP DP  RH WIND       PRES   REMARKS
ELKINS         PTSUNNY   73  66  78 CALM      30.11R
$$

WVZ052-062100-
Eastern Panhandle of West Virginia

CITY           SKY/WX    TMP DP  RH WIND       PRES   REMARKS
MARTINSBURG    MOSUNNY   84  69  60 S10       30.05F
PETERSBURG     LGT RAIN  74  70  85 E3        30.07S
$$



USA.gov is the U.S. government's official web portal to all federal, state and local government web resources and services.